C/2019 B1 ( Africano )

Japanese version
Home page
Updated on April 21, 2019

---------------------------------------------------------------------

* Profile

Discovery Date January 19, 2019
Magnitude 17.8 mag
Discoverer B. M. Africano (Catalina)

* Pictures

* Orbital Elements

Epoch 2019 Mar. 18.0 TT = JDT 2458560.5
T 2019 Mar. 19.97491 TT                                 MPCW
q   1.5969657            (2000.0)            P               Q
z  +0.0077091      Peri.  174.92082     -0.39355539     +0.48220773
 +/-0.0015694      Node   290.44567     +0.81129259     +0.58258209
e   0.9876888      Incl.  123.35270     +0.43234071     -0.65427351
From 41 observations 2019 Jan. 19-31, mean residual 0".6.

* Magnitudes Graph

        m1 = 15.5 + 5 log d + 10.0 log r

---------------------------------------------------------------------

The orbital elements are published on M.P.E.C. 2019-C11.
The magnitudes graphs are made with Comet for Windows.

---------------------------------------------------------------------

Copyright(C) Seiichi Yoshida (comet@aerith.net). All rights reserved.